Galesburg, IL

9:51 PM CDT on August 24, 2019 (GMT -0500)
Galesburg Municipal

Weather History for KGBG - May, 2019

Change the Weather History Date:

Tuesday, May 28, 2019

  Actual Average Record
Temperature  
Mean Temperature 66 °F -  
Max Temperature 72 °F 75 °F 95 °F (2018)
Min Temperature 59 °F 55 °F 41 °F (1965)
Growing Degree Days 16 (Base 50)    
Moisture  
Dew Point 62 °F    
Average Humidity 91    
Maximum Humidity 100    
Minimum Humidity 73    
Precipitation  
Precipitation 1.31 in - - ()
Sea Level Pressure  
Sea Level Pressure 29.75 in    
Wind  
Wind Speed 5 mph (NE)    
Max Wind Speed 25 mph    
Max Gust Speed 45 mph    
Visibility 9 miles    
Events Rain , Thunderstorm    
Averages and records for this station are not official NWS values.
T = Trace of Precipitation, MM = Missing Value Source: NWS Daily Summary

Daily Weather History Graph

Daily Weather History Graph

Search for Another Location

Airport or City:

Astronomy

May. 28, 2019 Rise Set
Actual Time 5:34 AM CDT 8:24 PM CDT
Civil Twilight 5:01 AM CDT 8:56 PM CDT
Nautical Twilight 4:20 AM CDT 9:37 PM CDT
Astronomical Twilight 3:33 AM CDT 10:25 PM CDT
Moon 2:49 AM CDT (5/28) 2:31 PM CDT (5/28)
Length of Visible Light 15h 54m
Length of Day
14h 50m
Waning Crescent, 31% of the Moon is Illuminated
May 28
Waning Crescent
Jun 3
New
Jun 10
First Quarter
Jun 17
Full
Jun 25
Last Quarter

Hourly Weather History & Observations

Time (CDT) Temp. Dew Point Humidity Pressure Visibility Wind Dir Wind Speed Gust Speed Precip Events Conditions
12:15 AM 68.9 °F 68.2 °F 98% 29.71 in 10.0 mi Calm Calm - N/A Thunderstorm Mostly Cloudy
12:35 AM 68.9 °F 68.2 °F 98% 29.70 in 10.0 mi Calm Calm - N/A Thunderstorm Thunderstorm
12:55 AM 68.7 °F 68.4 °F 99% 29.71 in 7.0 mi Calm Calm - 0.01 in Rain , Thunderstorm Light Thunderstorms and Rain
1:15 AM 68.5 °F 68.4 °F 99% 29.70 in 7.0 mi Calm Calm - N/A Thunderstorm Thunderstorm
1:35 AM 68.5 °F 68.4 °F 99% 29.70 in 7.0 mi Calm Calm - N/A   Overcast
1:55 AM 68.5 °F 68.5 °F 100% 29.70 in 7.0 mi Calm Calm - N/A   Overcast
2:15 AM 68.9 °F 68.9 °F 100% 29.72 in 10.0 mi Calm Calm - N/A   Overcast
2:35 AM 68.9 °F 68.9 °F 100% 29.71 in 10.0 mi WSW 3.5 mph - N/A   Mostly Cloudy
2:55 AM 69.1 °F 68.9 °F 99% 29.72 in 10.0 mi SW 3.5 mph - N/A   Clear
3:15 AM 69.8 °F 69.3 °F 98% 29.72 in 10.0 mi WNW 5.8 mph - N/A   Scattered Clouds
3:35 AM 69.6 °F 69.3 °F 99% 29.72 in 10.0 mi WNW 6.9 mph - N/A   Overcast
3:55 AM 67.8 °F 66.4 °F 95% 29.73 in 10.0 mi WNW 6.9 mph - N/A   Overcast
4:15 AM 66.9 °F 65.1 °F 94% 29.72 in 10.0 mi WNW 6.9 mph - N/A   Overcast
4:35 AM 65.3 °F 62.8 °F 92% 29.73 in 10.0 mi WNW 6.9 mph - N/A   Overcast
4:55 AM 64.2 °F 61.9 °F 92% 29.72 in 10.0 mi WNW 5.8 mph - N/A   Mostly Cloudy
5:15 AM 63.5 °F 62.6 °F 97% 29.72 in 10.0 mi West 5.8 mph - N/A   Scattered Clouds
5:35 AM 62.1 °F 60.4 °F 94% 29.72 in 10.0 mi WNW 4.6 mph - N/A   Scattered Clouds
5:55 AM 62.1 °F 59.0 °F 90% 29.74 in 10.0 mi WNW 4.6 mph - N/A   Mostly Cloudy
6:15 AM 61.9 °F 59.4 °F 91% 29.75 in 10.0 mi WNW 6.9 mph - N/A   Overcast
6:35 AM 61.7 °F 59.2 °F 91% 29.75 in 10.0 mi WNW 4.6 mph - N/A   Overcast
6:55 AM 61.7 °F 58.8 °F 90% 29.76 in 10.0 mi West 5.8 mph - N/A   Overcast
7:15 AM 61.7 °F 59.0 °F 91% 29.76 in 10.0 mi WNW 6.9 mph - N/A   Overcast
7:35 AM 61.2 °F 59.0 °F 93% 29.76 in 10.0 mi West 9.2 mph - N/A   Overcast
7:55 AM 61.2 °F 59.2 °F 93% 29.76 in 7.0 mi West 8.1 mph - N/A   Overcast
8:15 AM 61.7 °F 59.7 °F 93% 29.77 in 10.0 mi West 5.8 mph - N/A   Overcast
8:35 AM 61.7 °F 59.7 °F 93% 29.77 in 10.0 mi ENE 4.6 mph - N/A   Overcast
8:55 AM 61.9 °F 59.9 °F 93% 29.77 in 7.0 mi ENE 5.8 mph - N/A   Overcast
9:15 AM 62.1 °F 59.4 °F 91% 29.78 in 10.0 mi ENE 4.6 mph - N/A   Overcast
9:35 AM 62.8 °F 59.5 °F 89% 29.77 in 10.0 mi Calm Calm - N/A   Overcast
9:55 AM 64.4 °F 60.3 °F 86% 29.77 in 10.0 mi Calm Calm - N/A   Overcast
10:15 AM 64.8 °F 60.6 °F 86% 29.77 in 10.0 mi NE 3.5 mph - N/A   Overcast
10:35 AM 64.0 °F 60.3 °F 87% 29.77 in 10.0 mi ENE 8.1 mph - N/A   Overcast
10:55 AM 64.2 °F 59.9 °F 86% 29.78 in 10.0 mi NE 6.9 mph - N/A   Overcast
11:15 AM 65.7 °F 60.8 °F 84% 29.79 in 10.0 mi ENE 9.2 mph - N/A   Overcast
11:35 AM 67.1 °F 61.2 °F 81% 29.79 in 10.0 mi NE 6.9 mph - N/A   Mostly Cloudy
11:55 AM 68.7 °F 61.2 °F 77% 29.80 in 10.0 mi NE 5.8 mph - N/A   Mostly Cloudy
12:15 PM 65.7 °F 59.9 °F 82% 29.82 in 10.0 mi West 12.7 mph - N/A   Mostly Cloudy
12:35 PM 63.5 °F 58.3 °F 83% 29.83 in 10.0 mi West 15.0 mph - N/A   Overcast
12:55 PM 61.9 °F 56.8 °F 84% 29.87 in 10.0 mi WNW 21.9 mph 26.5 mph N/A   Overcast
1:15 PM 60.1 °F 57.0 °F 90% 29.87 in 5.0 mi NE 12.7 mph 16.1 mph N/A Rain , Thunderstorm Light Thunderstorms and Rain
1:35 PM 59.5 °F 57.6 °F 93% 29.82 in 10.0 mi NE 13.8 mph - N/A Rain Light Rain
1:55 PM 59.0 °F 57.7 °F 96% 29.69 in 10.0 mi East 16.1 mph 24.2 mph 0.01 in Rain Light Rain
2:15 PM 59.7 °F 58.5 °F 96% 29.67 in 10.0 mi ESE 15.0 mph 23.0 mph N/A   Scattered Clouds
2:35 PM 60.6 °F 58.3 °F 92% 29.69 in 10.0 mi ESE 6.9 mph 18.4 mph N/A Thunderstorm Clear
2:55 PM 61.7 °F 58.5 °F 89% 29.70 in 10.0 mi ESE 6.9 mph - N/A   Clear
3:15 PM 63.5 °F 59.7 °F 87% 29.70 in 10.0 mi ESE 5.8 mph - N/A   Clear
3:35 PM 66.2 °F 60.6 °F 82% 29.70 in 10.0 mi ESE 8.1 mph - N/A   Clear
3:55 PM 69.8 °F 61.9 °F 76% 29.68 in 10.0 mi ESE 4.6 mph - N/A   Clear
4:15 PM 71.4 °F 62.2 °F 73% 29.70 in 10.0 mi Calm Calm - N/A   Clear
4:35 PM 72.7 °F 63.5 °F 73% 29.70 in 10.0 mi Calm Calm - N/A   Clear
4:55 PM 70.9 °F 63.3 °F 77% 29.70 in 10.0 mi ENE 4.6 mph - N/A   Clear
5:15 PM 69.6 °F 63.5 °F 81% 29.70 in 10.0 mi ENE 9.2 mph - N/A   Clear
5:35 PM 68.5 °F 63.0 °F 82% 29.70 in 10.0 mi ENE 10.4 mph - N/A   Scattered Clouds
5:55 PM 67.5 °F 62.6 °F 84% 29.72 in 10.0 mi ENE 13.8 mph - N/A   Mostly Cloudy
6:15 PM 66.6 °F 62.1 °F 85% 29.73 in 10.0 mi ENE 17.3 mph - N/A   Overcast
6:35 PM 64.9 °F 60.8 °F 86% 29.74 in 10.0 mi ENE 16.1 mph 23.0 mph N/A Thunderstorm Overcast
6:55 PM 64.4 °F 60.3 °F 86% 29.73 in 10.0 mi ENE 13.8 mph - N/A   Overcast
7:15 PM 63.5 °F 59.5 °F 87% 29.71 in 10.0 mi ENE 19.6 mph 27.6 mph N/A   Overcast
7:35 PM 63.5 °F 59.5 °F 87% 29.67 in 10.0 mi NE 20.7 mph - N/A Rain , Thunderstorm Light Thunderstorms and Rain
7:55 PM 63.0 °F 59.4 °F 88% 29.67 in 10.0 mi NE 25.3 mph 32.2 mph N/A Rain , Thunderstorm Light Thunderstorms and Rain
8:15 PM 61.3 °F 59.5 °F 94% 29.79 in 0.2 mi West 20.7 mph 44.9 mph 0.71 in Rain , Thunderstorm Heavy Thunderstorms and Rain
8:35 PM 60.1 °F 59.7 °F 99% 29.75 in 10.0 mi NE 6.9 mph 11.5 mph 0.89 in Rain , Thunderstorm Light Thunderstorms and Rain
8:55 PM 61.0 °F 60.8 °F 99% 29.76 in 10.0 mi ESE 5.8 mph - 0.92 in Rain , Thunderstorm Light Thunderstorms and Rain
9:15 PM 61.0 °F 60.8 °F 99% 29.81 in 7.0 mi Calm Calm - 0.04 in Rain , Thunderstorm Heavy Thunderstorms and Rain
9:35 PM 61.0 °F 60.8 °F 99% 29.81 in 7.0 mi East 5.8 mph - 0.08 in Rain , Thunderstorm Thunderstorms and Rain
9:55 PM 61.7 °F 61.3 °F 99% 29.80 in 10.0 mi ENE 5.8 mph - 0.11 in Rain , Thunderstorm Rain
10:15 PM 61.7 °F 61.7 °F 100% 29.84 in 7.0 mi NE 4.6 mph - 0.04 in Rain Rain
10:35 PM 61.7 °F 61.7 °F 100% 29.80 in 10.0 mi ENE 10.4 mph - 0.09 in Rain Heavy Rain
10:55 PM 61.7 °F 61.3 °F 99% 29.79 in 10.0 mi East 8.1 mph - 0.11 in Rain Light Rain
11:15 PM 61.7 °F 61.3 °F 99% 29.78 in 10.0 mi ENE 9.2 mph - 0.02 in Rain , Thunderstorm Thunderstorms and Rain
11:35 PM 61.7 °F 61.3 °F 99% 29.78 in 7.0 mi East 10.4 mph - 0.09 in Rain , Thunderstorm Thunderstorms and Rain
11:55 PM 61.7 °F 61.5 °F 99% 29.77 in 10.0 mi East 11.5 mph - 0.15 in Rain , Thunderstorm Thunderstorms and Rain